AirNav   Air Wisconsin Up To $57,000 Bonus
 
 1620 users online  

1IN4 Robinson Airpark
Elizabeth, Indiana, USA

GOING TO ELIZABETH?


FAA INFORMATION EFFECTIVE 11 AUGUST 2022

Location

FAA Identifier: 1IN4
Lat/Long: 38-08-35.0000N 085-59-16.0000W
38-08.583333N 085-59.266667W
38.1430556,-85.9877778
(estimated)
Elevation: 775 ft. / 236 m (estimated)
Variation: 03W (1995)
From city: 1 mile NW of ELIZABETH, IN
Time zone: UTC -4 (UTC -5 during Standard Time)
Zip code: 47117

Airport Operations

Airport use: Private use. Permission required prior to landing
Activation date: 02/1998
Control tower: no
ARTCC: INDIANAPOLIS CENTER
FSS: TERRE HAUTE FLIGHT SERVICE STATION
Attendance: CONTINUOUS
Segmented circle: no

Airport Communications

WX ASOS at SDF (12 nm E): PHONE 502-367-1492
WX ASOS at LOU (16 nm E): 118.275 (502-473-0693)
WX AWOS-3 at JVY (18 nm NE): 118.575 (812-246-1278)

Nearby radio navigation aids

VOR radial/distance  VOR name  Freq  Var
FTKr358/14.2FORT KNOX VOR/DME109.6001W
MYSr040/(19.2)MYSTIC VOR108.2001W
IIUr276/19.5LOUISVILLE VORTAC114.8001E
EWOr333/34.0NEW HOPE VOR/DME110.8001E

 
NDB name  Hdg/Dist  Freq  Var  ID
GODMAN000/11.139603WGOI --. --- ..

Airport Services

Runway Information

Runway 9/27

Dimensions: 2000 x 30 ft. / 610 x 9 m
Surface: turf, in good condition
RUNWAY 9  RUNWAY 27
Traffic pattern: leftleft
Obstructions: none30 ft. trees, 500 ft. from runway

Airport Ownership and Management from official FAA records

Ownership: Privately-owned
Owner: JAMES E. ROBINSON
7300 PINE SHORE DRIVE
ELIZABETH, IN 47117
Phone 812-969-2859
Manager: JAMES E. ROBINSON
7300 PINE SHORE DRIVE
ELIZABETH, IN 47117
Phone 812-969-2859

Additional Remarks

FOR CD CTC LOUISVILLE APCH AT 502-375-7499

Instrument Procedures

There are no published instrument procedures at 1IN4.

Some nearby airports with instrument procedures:

KSDF - Louisville Muhammad Ali International Airport (12 nm E)
KFTK - Godman Army Airfield (14 nm S)
KLOU - Bowman Field Airport (16 nm E)
KJVY - Clark Regional Airport (18 nm NE)
KEKX - Addington Field Airport (28 nm S)
 
Loc | Ops | Rwys | IFR | FBO | Links
Com | Nav | Svcs | Stats | Notes
Area around 1IN4 (Robinson Airpark)
 
Road maps at: MapQuest Bing Google
 
Aerial photo
No photo
 
Sectional chart

 
Airport distance calculator
Flying to Robinson Airpark? Find the distance to fly.

From to 1IN4

Sunrise and sunset
Times for 19-Aug-2022
 Local
(UTC-4)
 Zulu
(UTC)
Morning civil twilight06:3510:35
Sunrise07:0311:03
Sunset20:3200:32
Evening civil twilight21:0001:00

Current date and time
Zulu (UTC)  19-Aug-2022 18:43:36
Local (UTC-4)  19-Aug-2022 14:43:36
 
METAR
KSDF 
12nm E 
191756Z 07004KT 10SM BKN055 BKN075 BKN300 29/16 A3000 RMK AO2 SLP151 TCU DSNT S T02940156 10306 20206 58013
KFTK 
16nm S 
191756Z AUTO 03003KT 10SM SCT050 BKN065 28/16 A3000 RMK AO2 SLP156 T02820161 10289 20172 57009 $
KLOU 
16nm E 
191753Z 06006KT 10SM FEW060 SCT080 29/17 A3000 RMK AO2 SLP154 60000 T02890167 10300 20183 58012
KJVY 
18nm NE 
191815Z AUTO 16004KT 10SM SCT060 SCT095 31/16 A3000 RMK AO2
TAF
KSDF 
12nm E 
191729Z 1918/2024 13004KT P6SM SCT060 FM201600 20007KT P6SM FEW090 FM201800 20006KT P6SM VCTS BKN050CB
KFTK 
16nm S 
191100Z 1911/2017 11006KT 9999 FEW100 QNH2996INS BECMG 1915/1916 08008KT 9999 SCT035 QNH2999INS BECMG 1922/1923 VRB03KT 9999 SKC QNH2992INS TX29/1919Z TN16/1911Z
NOTAMs
Click for the latest NOTAMs
NOTAMs are issued by the DoD/FAA and will open in a separate window not controlled by AirNav.

 

 
 

Would you like to see your business listed on this page?

 If your business provides an interesting product or service to pilots, flight crews, aircraft, or users of the Robinson Airpark, you should consider listing it here.  To start the listing process, click on the button below
 
Add a business
 

Other Pages about Robinson Airpark

Update a link
 
Copyright © AirNav, LLC. All rights reserved. Privacy Policy  Contact